Perry, FL

1:29 AM EST on December 14, 2017 (GMT -0500)
Perry

Weather History for K40J - December, 2012

Change the Weather History Date:

Tuesday, December 4, 2012

  Actual Average (KVLD) Record (KVLD)
Temperature  
Mean Temperature 67 °F -  
Max Temperature 79 °F 65 °F 81 °F (2012)
Min Temperature 55 °F 43 °F 30 °F (2000)
Cooling Degree Days 2    
Growing Degree Days 17 (Base 50)    
Moisture  
Dew Point 56 °F    
Average Humidity 76    
Maximum Humidity 97    
Minimum Humidity 38    
Precipitation  
Precipitation 0.00 in - - ()
Sea Level Pressure  
Sea Level Pressure 30.25 in    
Wind  
Wind Speed 4 mph (ESE)    
Max Wind Speed 9 mph    
Max Gust Speed -    
Averages and records for this station are not official NWS values.
T = Trace of Precipitation, MM = Missing Value Source: NWS Daily Summary

Daily Weather History Graph

Daily Weather History Graph

Search for Another Location

Airport or City:

Trip Planner

Search our weather history database for the weather conditions in past years. The results will help you decide how hot, cold, wet, or windy it might be!

Date:

Astronomy

Dec. 04, 2012 Rise Set
Actual Time 7:15 AM EST 5:34 PM EST
Civil Twilight 6:49 AM EST 6:00 PM EST
Nautical Twilight 6:19 AM EST 6:29 PM EST
Astronomical Twilight 5:50 AM EST 6:58 PM EST
Moon 11:04 PM EST (12/4) 11:23 AM EST (12/4)
Length of Visible Light 11h 10m
Length of Day
10h 18m
Waning Gibbous, 69% of the Moon is Illuminated
Dec 4
Waning Gibbous
Dec 6
Last Quarter
Dec 13
New
Dec 20
First Quarter
Dec 28
Full

Hourly Weather History & Observations

Time (EST) Temp. Dew Point Humidity Pressure Visibility Wind Dir Wind Speed Gust Speed Precip Events Conditions
12:53 AM 62.1 °F 60.1 °F 93% 30.25 in - ESE 5.8 mph - N/A   Unknown
1:53 AM 59.0 °F 57.9 °F 96% 30.25 in - ESE 3.5 mph - N/A   Unknown
2:53 AM 59.0 °F 57.0 °F 93% 30.25 in - ESE 4.6 mph - N/A   Unknown
3:53 AM 57.9 °F 57.0 °F 97% 30.24 in - ESE 3.5 mph - N/A   Unknown
4:53 AM 57.9 °F 57.0 °F 97% 30.24 in - ESE 4.6 mph - N/A   Unknown
5:53 AM 57.9 °F 57.0 °F 97% 30.26 in - ESE 3.5 mph - N/A   Unknown
6:53 AM 59.0 °F 57.0 °F 93% 30.27 in - SE 4.6 mph - N/A   Unknown
7:53 AM 57.9 °F 55.9 °F 93% 30.30 in - Calm Calm - N/A   Unknown
8:53 AM 63.0 °F 60.1 °F 90% 30.31 in - SE 4.6 mph - N/A   Unknown
9:53 AM 70.0 °F 61.0 °F 73% 30.32 in - Variable 4.6 mph - N/A   Unknown
10:53 AM 73.9 °F 59.0 °F 59% 30.32 in - SSE 6.9 mph - N/A   Unknown
11:53 AM 75.0 °F 57.0 °F 53% 30.30 in - Variable 6.9 mph - N/A   Unknown
12:53 PM 77.0 °F 55.0 °F 47% 30.25 in - Variable 3.5 mph - N/A   Unknown
1:53 PM 79.0 °F 53.1 °F 40% 30.23 in - SSE 9.2 mph - N/A   Unknown
2:53 PM 79.0 °F 51.1 °F 38% 30.22 in - NE 8.1 mph - N/A   Unknown
3:53 PM 77.0 °F 52.0 °F 42% 30.22 in - ESE 6.9 mph - N/A   Unknown
4:53 PM 73.0 °F 55.9 °F 55% 30.22 in - WSW 6.9 mph - N/A   Unknown
5:53 PM 66.9 °F 55.0 °F 66% 30.22 in - WSW 3.5 mph - N/A   Unknown
6:53 PM 63.0 °F 55.0 °F 75% 30.22 in - Calm Calm - N/A   Unknown
7:53 PM 63.0 °F 55.0 °F 75% 30.23 in - Calm Calm - N/A   Unknown
8:53 PM 59.0 °F 55.0 °F 87% 30.22 in - Calm Calm - N/A   Unknown
9:53 PM 57.9 °F 54.0 °F 87% 30.23 in - Calm Calm - N/A   Unknown
10:53 PM 55.9 °F 53.1 °F 90% 30.23 in - ENE 3.5 mph - N/A   Unknown
11:53 PM 61.0 °F 54.0 °F 78% 30.22 in - East 4.6 mph - N/A   Unknown